Find USA 485

NORAD ID: 62756 Int'l Des: 2025-014 Owner: NROC Country: US operational
LEOCIRCULAR

Live Position

Loading 3D Globe...

About USA 485

Description loading...

Upcoming Passes

Passes for default location (London). Set your location on the main map for personalized predictions.

Altitude History

Loading altitude history...

Two-Line Element Set

1 62756U 25014X 26105.94039617 .00152348 00000-0 92079-3 0 9994
2 62756 42.9964 129.1343 0001554 291.7230 68.3474 15.76391620 70946
Epoch: Apr 15, 2026 • Age: 11 hours

Current Status

Altitude 339.1 km
Velocity 7.71 km/s
Sub-Earth Point 8.25°N, 151.82°E
Launch Date Jan 21, 2025
Age 1.2 years
Type military

Technical Details

Classification Payload
Mass 800.00 kg
Dry Mass 750.00 kg
Total Mass 800.00 kg
Length 0.30 m
Diameter 4.10 m
Span 29.00 m
Shape Box + pan
Manufacturer SPXS
Bus Type Starshield
Phase Status In Orbit
Owner/State NROC/US

Most Searched